WMT5095 LUKK-LIPX

Flight info

Callsign WMT5095
Flight time 2h 6m
Altitude 38000
Route POGAV DCT DEGET DCT KOPRY DCT BARPI/N0448F370 DCT AKADO/N0347F190 M196 KOPER/N0343F180 L614 OSTEG
Aircraft A321/M-SDE1E2E3FGIJ1J4RWXY/LB1

Departure

Time 2026-04-21 20:35
Airport Chişinău International Airport (LUKK)

Arrival

Time 2026-04-21 22:41
Airport Verona Villafranca Valerio Catullo Airport (LIPX)
Time Latitude Longitude Altitude Speed Heading
2026-04-21 20:05 46.93203 28.93536 409 ft 0 kts 276°
2026-04-21 20:30 46.93203 28.93532 409 ft 1 kts 276°
2026-04-21 20:31 46.93206 28.93496 409 ft 6 kts 276°
2026-04-21 20:31 46.93186 28.93460 408 ft 4 kts 202°
2026-04-21 20:31 46.93160 28.93466 409 ft 4 kts 147°
2026-04-21 20:31 46.93143 28.93532 411 ft 11 kts 98°
2026-04-21 20:32 46.93130 28.93687 409 ft 19 kts 97°
2026-04-21 20:32 46.93114 28.93893 408 ft 22 kts 97°
2026-04-21 20:32 46.93094 28.94121 406 ft 24 kts 97°
2026-04-21 20:32 46.93072 28.94372 406 ft 25 kts 97°
2026-04-21 20:33 46.93051 28.94629 408 ft 26 kts 98°
2026-04-21 20:33 46.93029 28.94889 410 ft 21 kts 96°
2026-04-21 20:33 46.93013 28.95071 410 ft 11 kts 105°
2026-04-21 20:33 46.92943 28.95114 409 ft 13 kts 178°
2026-04-21 20:34 46.92850 28.95115 409 ft 12 kts 191°
2026-04-21 20:34 46.92819 28.95011 409 ft 13 kts 268°
2026-04-21 20:34 46.92815 28.94830 408 ft 37 kts 268°
2026-04-21 20:34 46.92799 28.94038 409 ft 115 kts 268°
2026-04-21 20:35 46.92770 28.92585 527 ft 162 kts 269°
2026-04-21 20:35 46.92736 28.90940 1239 ft 162 kts 269°
2026-04-21 20:35 46.92686 28.89278 1934 ft 164 kts 269°
2026-04-21 20:35 46.92637 28.87604 2440 ft 169 kts 270°
2026-04-21 20:36 46.92610 28.85825 2830 ft 179 kts 271°
2026-04-21 20:36 46.92602 28.83974 3213 ft 187 kts 271°
2026-04-21 20:36 46.92562 28.81988 3337 ft 209 kts 265°
2026-04-21 20:36 46.92261 28.79779 3487 ft 229 kts 257°
2026-04-21 20:37 46.91773 28.77445 3601 ft 252 kts 253°
2026-04-21 20:37 46.91190 28.74984 4265 ft 262 kts 252°
2026-04-21 20:37 46.90581 28.72445 5208 ft 266 kts 252°
2026-04-21 20:37 46.89974 28.69872 6167 ft 268 kts 253°
2026-04-21 20:38 46.89375 28.67271 7117 ft 270 kts 253°
2026-04-21 20:38 46.88782 28.64654 8066 ft 272 kts 254°
2026-04-21 20:38 46.88195 28.62019 9023 ft 273 kts 254°
2026-04-21 20:38 46.87611 28.59364 9990 ft 275 kts 255°
2026-04-21 20:39 46.87029 28.56700 10583 ft 288 kts 255°
2026-04-21 20:39 46.86398 28.53788 10890 ft 310 kts 255°
2026-04-21 20:39 46.85735 28.50736 11522 ft 318 kts 255°
2026-04-21 20:39 46.85055 28.47631 12320 ft 322 kts 255°
2026-04-21 20:40 46.84364 28.44500 13138 ft 326 kts 255°
2026-04-21 20:40 46.83661 28.41326 13956 ft 329 kts 255°
2026-04-21 20:40 46.82952 28.38135 14662 ft 332 kts 255°
2026-04-21 20:40 46.82234 28.34904 15378 ft 336 kts 255°
2026-04-21 20:41 46.81507 28.31640 16095 ft 340 kts 255°
2026-04-21 20:41 46.80772 28.28344 16817 ft 343 kts 254°
2026-04-21 20:41 46.80028 28.25006 17544 ft 347 kts 255°
2026-04-21 20:41 46.79278 28.21645 18263 ft 351 kts 254°
2026-04-21 20:42 46.78537 28.18226 18878 ft 354 kts 258°
2026-04-21 20:42 46.78147 28.14679 19469 ft 355 kts 269°
2026-04-21 20:42 46.78097 28.11099 20059 ft 359 kts 271°
2026-04-21 20:42 46.78058 28.07440 20668 ft 363 kts 271°
2026-04-21 20:43 46.78016 28.03738 21273 ft 367 kts 271°
2026-04-21 20:43 46.77970 27.99987 21876 ft 371 kts 270°
2026-04-21 20:43 46.77920 27.96202 22479 ft 375 kts 270°
2026-04-21 20:43 46.77869 27.92363 23069 ft 379 kts 270°
2026-04-21 20:44 46.77815 27.88493 23648 ft 384 kts 270°
2026-04-21 20:44 46.77757 27.84628 24130 ft 387 kts 270°
2026-04-21 20:44 46.77697 27.80694 24647 ft 389 kts 270°
2026-04-21 20:44 46.77637 27.76733 25166 ft 391 kts 270°
2026-04-21 20:45 46.77573 27.72743 25682 ft 392 kts 270°
2026-04-21 20:45 46.77507 27.68751 26190 ft 394 kts 270°
2026-04-21 20:45 46.77442 27.64783 26675 ft 396 kts 270°
2026-04-21 20:45 46.77378 27.60753 27167 ft 398 kts 270°
2026-04-21 20:46 46.77315 27.56709 27645 ft 400 kts 270°
2026-04-21 20:46 46.77248 27.52643 28118 ft 402 kts 270°
2026-04-21 20:46 46.77179 27.48556 28580 ft 404 kts 270°
2026-04-21 20:46 46.77107 27.44453 29040 ft 406 kts 270°
2026-04-21 20:47 46.77031 27.40316 29485 ft 408 kts 270°
2026-04-21 20:47 46.76955 27.36159 29919 ft 410 kts 270°
2026-04-21 20:47 46.76882 27.32038 30294 ft 412 kts 270°
2026-04-21 20:47 46.76805 27.27844 30621 ft 414 kts 269°
2026-04-21 20:48 46.76723 27.23620 30938 ft 417 kts 269°
2026-04-21 20:48 46.76635 27.19384 31248 ft 419 kts 269°
2026-04-21 20:48 46.76544 27.15118 31568 ft 422 kts 269°
2026-04-21 20:48 46.76453 27.10834 31908 ft 423 kts 269°
2026-04-21 20:49 46.76363 27.06541 32351 ft 423 kts 269°
2026-04-21 20:49 46.76274 27.02255 32776 ft 422 kts 269°
2026-04-21 20:49 46.76183 26.97971 33189 ft 422 kts 269°
2026-04-21 20:49 46.76091 26.93752 33595 ft 422 kts 269°
2026-04-21 20:50 46.75995 26.89471 33993 ft 422 kts 269°
2026-04-21 20:50 46.75901 26.85193 34332 ft 422 kts 269°
2026-04-21 20:50 46.75804 26.80919 34641 ft 422 kts 269°
2026-04-21 20:50 46.75701 26.76628 34944 ft 422 kts 269°
2026-04-21 20:51 46.75597 26.72344 35251 ft 423 kts 269°
2026-04-21 20:51 46.75492 26.68055 35561 ft 423 kts 269°
2026-04-21 20:51 46.75384 26.63764 35872 ft 423 kts 269°
2026-04-21 20:51 46.75274 26.59476 36170 ft 424 kts 269°
2026-04-21 20:52 46.75166 26.55181 36461 ft 424 kts 269°
2026-04-21 20:52 46.75057 26.50871 36745 ft 424 kts 269°
2026-04-21 20:52 46.74947 26.46623 37011 ft 425 kts 269°
2026-04-21 20:52 46.74832 26.42310 37266 ft 425 kts 269°
2026-04-21 20:53 46.74716 26.37994 37513 ft 425 kts 269°
2026-04-21 20:53 46.74597 26.33680 37761 ft 425 kts 268°
2026-04-21 20:53 46.74475 26.29364 38004 ft 426 kts 268°
2026-04-21 20:53 46.74352 26.25046 38116 ft 426 kts 268°
2026-04-21 20:54 46.74101 26.16411 38132 ft 425 kts 268°
2026-04-21 20:54 46.73849 26.07836 38130 ft 425 kts 268°
2026-04-21 20:55 46.73590 25.99213 38133 ft 426 kts 268°
2026-04-21 20:55 46.73329 25.90576 38130 ft 425 kts 268°
2026-04-21 20:56 46.73058 25.81955 38133 ft 426 kts 268°
2026-04-21 20:56 46.72778 25.73383 38132 ft 426 kts 268°
2026-04-21 20:57 46.72492 25.64730 38132 ft 426 kts 268°
2026-04-21 20:57 46.72202 25.56101 38133 ft 426 kts 268°
2026-04-21 20:58 46.71904 25.47457 38130 ft 426 kts 268°
2026-04-21 20:58 46.71596 25.38877 38126 ft 426 kts 268°
2026-04-21 20:59 46.71285 25.30230 38122 ft 426 kts 268°
2026-04-21 20:59 46.70971 25.21602 38120 ft 426 kts 268°
2026-04-21 21:00 46.70708 25.14427 38121 ft 426 kts 268°
2026-04-21 21:00 46.70319 25.04392 38111 ft 426 kts 268°
2026-04-21 21:01 46.69972 24.95770 38103 ft 426 kts 268°
2026-04-21 21:01 46.69683 24.88602 38103 ft 426 kts 268°
2026-04-21 21:02 46.69335 24.79969 38099 ft 426 kts 268°
2026-04-21 21:02 46.68982 24.71352 38095 ft 426 kts 268°
2026-04-21 21:03 46.68620 24.62780 38095 ft 426 kts 268°
2026-04-21 21:03 46.68248 24.54170 38094 ft 426 kts 267°
2026-04-21 21:04 46.67869 24.45541 38094 ft 426 kts 267°
2026-04-21 21:04 46.67484 24.36931 38092 ft 426 kts 267°
2026-04-21 21:05 46.67091 24.28298 38089 ft 426 kts 267°
2026-04-21 21:05 46.66700 24.19686 38088 ft 426 kts 267°
2026-04-21 21:06 46.66306 24.11064 38096 ft 426 kts 267°
2026-04-21 21:06 46.65901 24.02501 38085 ft 426 kts 267°
2026-04-21 21:07 46.65487 23.93882 38077 ft 427 kts 267°
2026-04-21 21:07 46.65068 23.85252 38073 ft 427 kts 267°
2026-04-21 21:08 46.64640 23.76623 38069 ft 427 kts 267°
2026-04-21 21:08 46.64207 23.68058 38069 ft 427 kts 267°
2026-04-21 21:09 46.63763 23.59412 38074 ft 427 kts 267°
2026-04-21 21:09 46.63312 23.50848 38078 ft 427 kts 267°
2026-04-21 21:10 46.62862 23.42217 38094 ft 427 kts 266°
2026-04-21 21:10 46.62400 23.33593 38106 ft 427 kts 266°
2026-04-21 21:11 46.61931 23.25031 38104 ft 427 kts 266°
2026-04-21 21:11 46.61459 23.16417 38104 ft 427 kts 266°
2026-04-21 21:12 46.60987 23.07809 38112 ft 427 kts 266°
2026-04-21 21:12 46.60506 22.99204 38107 ft 427 kts 266°
2026-04-21 21:13 46.60007 22.90605 38113 ft 426 kts 266°
2026-04-21 21:13 46.59498 22.82063 38107 ft 426 kts 266°
2026-04-21 21:14 46.58997 22.73476 38109 ft 426 kts 266°
2026-04-21 21:14 46.58488 22.64877 38106 ft 426 kts 266°
2026-04-21 21:15 46.57975 22.56290 38106 ft 426 kts 266°
2026-04-21 21:15 46.57447 22.47711 38105 ft 426 kts 266°
2026-04-21 21:16 46.56915 22.39127 38105 ft 426 kts 266°
2026-04-21 21:16 46.56386 22.30613 38093 ft 426 kts 266°
2026-04-21 21:17 46.55847 22.22029 38095 ft 426 kts 266°
2026-04-21 21:17 46.55290 22.13454 38090 ft 426 kts 266°
2026-04-21 21:18 46.54737 22.04924 38092 ft 426 kts 266°
2026-04-21 21:18 46.54180 21.96352 38092 ft 426 kts 266°
2026-04-21 21:19 46.53607 21.87767 38092 ft 426 kts 265°
2026-04-21 21:19 46.53033 21.79257 38096 ft 426 kts 265°
2026-04-21 21:20 46.52456 21.70698 38096 ft 426 kts 265°
2026-04-21 21:20 46.51866 21.62136 38098 ft 426 kts 265°
2026-04-21 21:21 46.51269 21.53582 38101 ft 426 kts 265°
2026-04-21 21:21 46.50676 21.45030 38099 ft 425 kts 265°
2026-04-21 21:22 46.50070 21.36477 38102 ft 425 kts 265°
2026-04-21 21:22 46.49451 21.27984 38105 ft 425 kts 265°
2026-04-21 21:23 46.48946 21.19428 38105 ft 425 kts 268°
2026-04-21 21:23 46.48650 21.10856 38104 ft 425 kts 269°
2026-04-21 21:24 46.48361 21.02288 38108 ft 425 kts 268°
2026-04-21 21:24 46.48019 20.93769 38111 ft 425 kts 268°
2026-04-21 21:25 46.47640 20.85207 38110 ft 425 kts 268°
2026-04-21 21:25 46.47252 20.76648 38115 ft 424 kts 268°
2026-04-21 21:26 46.46873 20.68143 38113 ft 424 kts 268°
2026-04-21 21:26 46.46492 20.59589 38115 ft 424 kts 268°
2026-04-21 21:27 46.46095 20.51040 38118 ft 424 kts 267°
2026-04-21 21:27 46.45689 20.42502 38119 ft 424 kts 268°
2026-04-21 21:28 46.45280 20.33955 38116 ft 424 kts 267°
2026-04-21 21:29 46.44662 20.21191 38121 ft 424 kts 267°
2026-04-21 21:29 46.44242 20.12644 38127 ft 424 kts 267°
2026-04-21 21:30 46.43815 20.04120 38125 ft 424 kts 267°
2026-04-21 21:30 46.43381 19.95596 38126 ft 424 kts 267°
2026-04-21 21:31 46.42943 19.87120 38133 ft 424 kts 267°
2026-04-21 21:31 46.42489 19.78576 38130 ft 424 kts 267°
2026-04-21 21:32 46.42030 19.70056 38134 ft 424 kts 267°
2026-04-21 21:32 46.41578 19.61584 38135 ft 424 kts 267°
2026-04-21 21:33 46.41113 19.53066 38139 ft 424 kts 267°
2026-04-21 21:33 46.40640 19.44554 38136 ft 423 kts 267°
2026-04-21 21:34 46.40160 19.36034 38134 ft 423 kts 267°
2026-04-21 21:34 46.39676 19.27557 38135 ft 423 kts 267°
2026-04-21 21:35 46.39182 19.19045 38136 ft 423 kts 267°
2026-04-21 21:35 46.38692 19.10584 38136 ft 423 kts 267°
2026-04-21 21:36 46.38194 19.02084 38133 ft 424 kts 266°
2026-04-21 21:36 46.37673 18.93585 38133 ft 424 kts 266°
2026-04-21 21:37 46.37158 18.85063 38136 ft 424 kts 266°
2026-04-21 21:37 46.36638 18.76550 38134 ft 424 kts 266°
2026-04-21 21:38 46.36107 18.68056 38135 ft 424 kts 266°
2026-04-21 21:38 46.35572 18.59588 38140 ft 424 kts 266°
2026-04-21 21:39 46.35025 18.51074 38143 ft 424 kts 266°
2026-04-21 21:39 46.34470 18.42573 38144 ft 424 kts 266°
2026-04-21 21:40 46.33922 18.34133 38142 ft 424 kts 266°
2026-04-21 21:40 46.33363 18.25639 38146 ft 423 kts 266°
2026-04-21 21:41 46.32802 18.17154 38151 ft 423 kts 266°
2026-04-21 21:41 46.32233 18.08687 38149 ft 423 kts 266°
2026-04-21 21:42 46.31649 18.00220 38149 ft 422 kts 266°
2026-04-21 21:42 46.31067 17.91756 38148 ft 422 kts 266°
2026-04-21 21:43 46.30487 17.83343 38149 ft 422 kts 266°
2026-04-21 21:43 46.29890 17.74892 38145 ft 422 kts 266°
2026-04-21 21:44 46.29284 17.66456 38148 ft 422 kts 266°
2026-04-21 21:44 46.28770 17.59429 38149 ft 422 kts 265°
2026-04-21 21:45 46.28051 17.49634 38145 ft 422 kts 265°
2026-04-21 21:45 46.27531 17.42562 38143 ft 422 kts 266°
2026-04-21 21:46 46.26917 17.34173 38146 ft 422 kts 265°
2026-04-21 21:46 46.26286 17.25738 38154 ft 422 kts 265°
2026-04-21 21:47 46.25648 17.17298 38151 ft 422 kts 265°
2026-04-21 21:47 46.25008 17.08870 38161 ft 422 kts 265°
2026-04-21 21:48 46.24352 17.00444 38155 ft 422 kts 265°
2026-04-21 21:48 46.23304 16.92147 38154 ft 424 kts 258°
2026-04-21 21:49 46.21862 16.83881 38154 ft 424 kts 258°
2026-04-21 21:49 46.20431 16.75666 38161 ft 424 kts 258°
2026-04-21 21:50 46.18986 16.67399 38159 ft 424 kts 258°
2026-04-21 21:50 46.17527 16.59145 38166 ft 424 kts 258°
2026-04-21 21:51 46.16062 16.50902 38166 ft 424 kts 258°
2026-04-21 21:51 46.14603 16.42698 38170 ft 424 kts 258°
2026-04-21 21:52 46.13134 16.34465 38172 ft 424 kts 258°
2026-04-21 21:52 46.11654 16.26233 38174 ft 423 kts 258°
2026-04-21 21:53 46.10174 16.18009 38175 ft 423 kts 258°
2026-04-21 21:53 46.08700 16.09847 38178 ft 423 kts 258°
2026-04-21 21:54 46.07199 16.01631 38183 ft 423 kts 258°
2026-04-21 21:54 46.05696 15.93433 38187 ft 423 kts 258°
2026-04-21 21:55 46.04195 15.85267 38195 ft 423 kts 258°
2026-04-21 21:55 46.02680 15.77065 38191 ft 423 kts 258°
2026-04-21 21:56 46.01171 15.68899 38201 ft 423 kts 258°
2026-04-21 21:56 45.99653 15.60723 38201 ft 423 kts 258°
2026-04-21 21:57 45.98127 15.52548 38206 ft 423 kts 258°
2026-04-21 21:57 45.96598 15.44432 38209 ft 423 kts 258°
2026-04-21 21:58 45.95055 15.36266 38211 ft 423 kts 257°
2026-04-21 21:58 45.93506 15.28105 38198 ft 422 kts 258°
2026-04-21 21:59 45.91951 15.19954 38190 ft 422 kts 257°
2026-04-21 21:59 45.90408 15.11868 38191 ft 422 kts 258°
2026-04-21 22:00 45.88854 15.03731 38185 ft 422 kts 258°
2026-04-21 22:00 45.87292 14.95610 38194 ft 422 kts 257°
2026-04-21 22:01 45.85723 14.87476 38187 ft 421 kts 257°
2026-04-21 22:01 45.84162 14.79435 38181 ft 421 kts 257°
2026-04-21 22:02 45.82580 14.71343 38189 ft 421 kts 257°
2026-04-21 22:02 45.80988 14.63243 38185 ft 421 kts 257°
2026-04-21 22:03 45.79402 14.55192 38186 ft 421 kts 257°
2026-04-21 22:03 45.77807 14.47121 38180 ft 420 kts 257°
2026-04-21 22:04 45.76204 14.39051 38177 ft 421 kts 257°
2026-04-21 22:04 45.74602 14.30996 38171 ft 420 kts 257°
2026-04-21 22:05 45.73004 14.22986 38157 ft 419 kts 257°
2026-04-21 22:05 45.71393 14.14965 38146 ft 418 kts 257°
2026-04-21 22:06 45.69789 14.07028 38133 ft 417 kts 257°
2026-04-21 22:06 45.68173 13.99051 38122 ft 417 kts 257°
2026-04-21 22:07 45.66560 13.91093 38115 ft 416 kts 257°
2026-04-21 22:07 45.64934 13.83127 38110 ft 416 kts 257°
2026-04-21 22:08 45.63315 13.75229 38110 ft 417 kts 257°
2026-04-21 22:08 45.61678 13.67286 38112 ft 417 kts 257°
2026-04-21 22:09 45.60037 13.59342 38112 ft 417 kts 257°
2026-04-21 22:09 45.58384 13.51400 38119 ft 417 kts 257°
2026-04-21 22:10 45.56560 13.43564 38123 ft 418 kts 255°
2026-04-21 22:10 45.54603 13.35737 38123 ft 418 kts 255°
2026-04-21 22:11 45.52655 13.27906 38119 ft 418 kts 255°
2026-04-21 22:11 45.50739 13.20073 38122 ft 418 kts 255°
2026-04-21 22:12 45.48840 13.12294 38119 ft 417 kts 255°
2026-04-21 22:12 45.46917 13.04493 38124 ft 417 kts 255°
2026-04-21 22:13 45.44993 12.96703 38114 ft 416 kts 255°
2026-04-21 22:13 45.44035 12.92815 37852 ft 415 kts 255°
2026-04-21 22:13 45.43079 12.88946 37582 ft 413 kts 255°
2026-04-21 22:13 45.42127 12.85098 37319 ft 411 kts 255°
2026-04-21 22:14 45.41177 12.81270 37055 ft 410 kts 255°
2026-04-21 22:14 45.40225 12.77457 36794 ft 408 kts 255°
2026-04-21 22:14 45.39272 12.73658 36543 ft 407 kts 255°
2026-04-21 22:14 45.38321 12.69868 36286 ft 405 kts 256°
2026-04-21 22:15 45.37376 12.66102 36032 ft 404 kts 256°
2026-04-21 22:15 45.36433 12.62332 35763 ft 402 kts 256°
2026-04-21 22:15 45.35510 12.58645 35303 ft 400 kts 256°
2026-04-21 22:15 45.34577 12.54947 34908 ft 395 kts 256°
2026-04-21 22:16 45.33647 12.51275 34476 ft 392 kts 256°
2026-04-21 22:16 45.32757 12.47628 33950 ft 389 kts 258°
2026-04-21 22:16 45.31964 12.43976 33436 ft 384 kts 260°
2026-04-21 22:16 45.31238 12.40352 32948 ft 379 kts 261°
2026-04-21 22:17 45.30539 12.36760 32467 ft 374 kts 261°
2026-04-21 22:17 45.29846 12.33216 31991 ft 370 kts 261°
2026-04-21 22:17 45.29151 12.29722 31516 ft 365 kts 261°
2026-04-21 22:17 45.28460 12.26316 31065 ft 361 kts 261°
2026-04-21 22:18 45.27756 12.22906 30605 ft 356 kts 261°
2026-04-21 22:18 45.27059 12.19557 30162 ft 352 kts 261°
2026-04-21 22:18 45.26365 12.16249 29677 ft 347 kts 261°
2026-04-21 22:18 45.25681 12.12995 29245 ft 340 kts 261°
2026-04-21 22:19 45.25011 12.09802 28845 ft 334 kts 261°
2026-04-21 22:19 45.24354 12.06660 28445 ft 329 kts 261°
2026-04-21 22:19 45.23708 12.03568 28065 ft 324 kts 261°
2026-04-21 22:19 45.23077 12.00557 27696 ft 321 kts 261°
2026-04-21 22:20 45.22444 11.97538 27330 ft 317 kts 261°
2026-04-21 22:20 45.21822 11.94566 26961 ft 313 kts 261°
2026-04-21 22:20 45.21203 11.91619 26620 ft 309 kts 261°
2026-04-21 22:20 45.20590 11.88711 26263 ft 305 kts 261°
2026-04-21 22:21 45.19991 11.85879 25912 ft 301 kts 261°
2026-04-21 22:21 45.19392 11.83056 25568 ft 296 kts 261°
2026-04-21 22:21 45.18804 11.80273 25213 ft 293 kts 261°
2026-04-21 22:21 45.18222 11.77515 24852 ft 290 kts 261°
2026-04-21 22:22 45.17645 11.74797 24505 ft 287 kts 261°
2026-04-21 22:22 45.17071 11.72095 24145 ft 285 kts 261°
2026-04-21 22:22 45.16508 11.69409 23746 ft 284 kts 263°
2026-04-21 22:22 45.16302 11.66639 22913 ft 285 kts 273°
2026-04-21 22:23 45.16242 11.63823 22077 ft 286 kts 272°
2026-04-21 22:23 45.16182 11.60995 21273 ft 288 kts 272°
2026-04-21 22:23 45.16123 11.58154 20485 ft 289 kts 272°
2026-04-21 22:23 45.16064 11.55324 19725 ft 291 kts 271°
2026-04-21 22:24 45.16002 11.52474 19212 ft 288 kts 271°
2026-04-21 22:24 45.15940 11.49645 18836 ft 286 kts 271°
2026-04-21 22:24 45.15877 11.46834 18482 ft 283 kts 271°
2026-04-21 22:24 45.15813 11.44050 18105 ft 281 kts 271°
2026-04-21 22:25 45.15750 11.41293 17750 ft 278 kts 271°
2026-04-21 22:25 45.15688 11.38599 17418 ft 276 kts 271°
2026-04-21 22:25 45.15624 11.35885 17086 ft 275 kts 271°
2026-04-21 22:25 45.15559 11.33174 16743 ft 275 kts 270°
2026-04-21 22:26 45.15496 11.30470 16407 ft 275 kts 270°
2026-04-21 22:26 45.15433 11.27762 16072 ft 274 kts 270°
2026-04-21 22:26 45.15369 11.25059 15735 ft 274 kts 270°
2026-04-21 22:26 45.15304 11.22363 15398 ft 274 kts 270°
2026-04-21 22:27 45.15237 11.19671 15061 ft 273 kts 270°
2026-04-21 22:27 45.15171 11.16975 14730 ft 273 kts 270°
2026-04-21 22:27 45.15127 11.15195 14508 ft 273 kts 270°
2026-04-21 22:27 45.15056 11.12504 14177 ft 273 kts 270°
2026-04-21 22:28 45.14986 11.09816 13841 ft 272 kts 270°
2026-04-21 22:28 45.14896 11.06265 13375 ft 271 kts 270°
2026-04-21 22:28 45.14850 11.04463 13150 ft 271 kts 269°
2026-04-21 22:28 45.14782 11.01790 12816 ft 271 kts 269°
2026-04-21 22:29 45.14716 10.99164 12494 ft 270 kts 269°
2026-04-21 22:29 45.14646 10.96507 12165 ft 269 kts 269°
2026-04-21 22:29 45.14575 10.93857 11833 ft 269 kts 269°
2026-04-21 22:29 45.14504 10.91215 11503 ft 268 kts 269°
2026-04-21 22:30 45.14431 10.88576 11172 ft 268 kts 269°
2026-04-21 22:30 45.14358 10.85951 10842 ft 267 kts 268°
2026-04-21 22:30 45.14283 10.83326 10519 ft 266 kts 268°
2026-04-21 22:30 45.14207 10.80712 10230 ft 264 kts 268°
2026-04-21 22:31 45.14132 10.78089 10143 ft 268 kts 268°
2026-04-21 22:31 45.14057 10.75507 10036 ft 257 kts 268°
2026-04-21 22:31 45.13985 10.73028 9952 ft 244 kts 268°
2026-04-21 22:31 45.13919 10.70733 9800 ft 222 kts 268°
2026-04-21 22:32 45.13859 10.68581 9728 ft 217 kts 268°
2026-04-21 22:32 45.13891 10.66452 9295 ft 216 kts 272°
2026-04-21 22:32 45.13909 10.64327 8759 ft 213 kts 270°
2026-04-21 22:32 45.14003 10.62271 8340 ft 212 kts 281°
2026-04-21 22:33 45.14536 10.60333 7894 ft 212 kts 304°
2026-04-21 22:33 45.15616 10.58919 7453 ft 214 kts 331°
2026-04-21 22:33 45.17035 10.58335 6948 ft 214 kts 359°
2026-04-21 22:33 45.18483 10.58743 6394 ft 213 kts 28°
2026-04-21 22:34 45.19633 10.60019 5821 ft 209 kts 47°
2026-04-21 22:34 45.20649 10.61486 5419 ft 207 kts 47°
2026-04-21 22:34 45.21648 10.62927 5104 ft 206 kts 47°
2026-04-21 22:34 45.22646 10.64364 4819 ft 203 kts 49°
2026-04-21 22:35 45.23633 10.65786 4551 ft 201 kts 48°
2026-04-21 22:35 45.24611 10.67196 4284 ft 199 kts 48°
2026-04-21 22:35 45.25576 10.68588 4024 ft 195 kts 48°
2026-04-21 22:35 45.26504 10.69925 3764 ft 183 kts 47°
2026-04-21 22:36 45.28183 10.72349 3304 ft 161 kts 48°
2026-04-21 22:36 45.28926 10.73421 3114 ft 147 kts 49°
2026-04-21 22:36 45.29634 10.74445 2907 ft 143 kts 49°
2026-04-21 22:37 45.30323 10.75442 2713 ft 140 kts 49°
2026-04-21 22:37 45.30997 10.76418 2538 ft 137 kts 49°
2026-04-21 22:37 45.31662 10.77380 2354 ft 135 kts 51°
2026-04-21 22:37 45.32314 10.78324 2176 ft 133 kts 51°
2026-04-21 22:38 45.32960 10.79260 1995 ft 133 kts 50°
2026-04-21 22:38 45.33603 10.80190 1840 ft 131 kts 51°
2026-04-21 22:38 45.34243 10.81114 1645 ft 131 kts 51°
2026-04-21 22:38 45.34882 10.82038 1439 ft 131 kts 50°
2026-04-21 22:39 45.35525 10.82967 1233 ft 133 kts 49°
2026-04-21 22:39 45.36164 10.83901 1048 ft 134 kts 50°
2026-04-21 22:39 45.36809 10.84866 859 ft 135 kts 48°
2026-04-21 22:39 45.37467 10.85812 669 ft 135 kts 45°
2026-04-21 22:40 45.38128 10.86757 469 ft 135 kts 46°
2026-04-21 22:40 45.38788 10.87712 279 ft 134 kts 47°
2026-04-21 22:40 45.39383 10.88581 238 ft 96 kts 46°
2026-04-21 22:40 45.39693 10.89036 238 ft 55 kts 46°
2026-04-21 22:41 45.39956 10.89414 238 ft 51 kts 45°
2026-04-21 22:41 45.40135 10.89674 240 ft 21 kts 45°
2026-04-21 22:41 45.40241 10.89829 238 ft 22 kts 46°
2026-04-21 22:41 45.40282 10.89943 238 ft 14 kts 74°
2026-04-21 22:42 45.40304 10.90071 237 ft 0 kts 75°
2026-04-21 22:42 45.40306 10.90084 237 ft 3 kts 75°
2026-04-21 22:42 45.40315 10.90131 237 ft 7 kts 76°
2026-04-21 22:42 45.40329 10.90209 237 ft 10 kts 76°
2026-04-21 22:43 45.40317 10.90297 237 ft 10 kts 132°
2026-04-21 22:43 45.40275 10.90356 237 ft 8 kts 136°
2026-04-21 22:43 45.40259 10.90400 237 ft 5 kts 83°
2026-04-21 22:43 45.40282 10.90455 237 ft 8 kts 45°
2026-04-21 22:44 45.40327 10.90519 237 ft 11 kts 45°
2026-04-21 22:44 45.40372 10.90586 237 ft 9 kts 46°
2026-04-21 22:44 45.40385 10.90642 237 ft 6 kts 111°
2026-04-21 22:44 45.40376 10.90660 237 ft 2 kts 143°
2026-04-21 22:45 45.40361 10.90679 237 ft 3 kts 136°
2026-04-21 22:45 45.40359 10.90682 237 ft 0 kts 136°
2026-04-21 22:45 45.40359 10.90681 237 ft 0 kts 136°
2026-04-21 22:45 45.40360 10.90681 237 ft 0 kts 136°